GW5459 Weather Reports


Display with metric or nautical units.
time (UTC)temp
F
wind
direction
speed
MPH
gust
MPH
rain 1hr
in
rain 24hr
in
rain mn
in
humidity
%
barometer
mb
20260503184702 64 221 2.0 2.0 0.00 0.00 0.00 36 1003.0
20260503184202 63 256 5.0 6.0 0.00 0.00 0.00 34 1003.0
20260503183702 63 245 2.0 2.0 0.00 0.00 0.00 36 1003.0
20260503183202 63 348 2.0 2.0 0.00 0.00 0.00 36 1003.0
20260503182703 64 228 2.0 2.0 0.00 0.00 0.00 35 1004.0
20260503182203 62 174 3.0 3.0 0.00 0.00 0.00 36 1004.0
20260503181707 62 245 6.0 7.0 0.00 0.00 0.00 35 1004.0
20260503181202 62 180 5.0 6.0 0.00 0.00 0.00 35 1004.0
20260503180702 62 250 3.0 3.0 0.00 0.00 0.00 37 1004.0
20260503180203 62 262 3.0 3.0 0.00 0.00 0.00 36 1004.0
20260503175702 62 36 2.0 2.0 0.00 0.00 0.00 36 1004.0
20260503175202 62 235 3.0 3.0 0.00 0.00 0.00 37 1004.0
20260503174703 62 255 3.0 3.0 0.00 0.00 0.00 36 1004.0
20260503174202 62 237 2.0 2.0 0.00 0.00 0.00 36 1004.0
20260503173702 63 306 2.0 2.0 0.00 0.00 0.00 37 1004.0
20260503173202 62 270 3.0 3.0 0.00 0.00 0.00 36 1004.0
20260503172702 62 253 3.0 3.0 0.00 0.00 0.00 37 1005.0
20260503172203 61 300 5.0 6.0 0.00 0.00 0.00 35 1005.0
20260503171702 60 24 4.0 5.0 0.00 0.00 0.00 37 1005.0
20260503171203 60 257 4.0 5.0 0.00 0.00 0.00 38 1005.0
20260503170702 60 227 5.0 6.0 0.00 0.00 0.00 38 1005.0
20260503170202 60 260 6.0 6.0 0.00 0.00 0.00 37 1005.0
20260503160202 59 297 6.0 7.0 0.00 0.00 0.00 38 1005.0
20260503150702 60 204 5.0 6.0 0.00 0.00 0.00 36 1006.0
20260503150202 59 264 8.0 8.0 0.00 0.00 0.00 39 1006.0
20260503140205 55 258 2.0 2.0 0.00 0.00 0.00 43 1006.0
20260503131203 49 270 3.0 3.0 0.00 0.00 0.00 51 1006.0
20260503130703 48 257 2.0 2.0 0.00 0.00 0.00 53 1006.0
20260503130202 48 204 0.0 0.0 0.00 0.00 0.00 52 1006.0
20260503120202 43 256 2.0 2.0 0.00 0.00 0.00 58 1006.0
20260503110702 36 282 2.0 2.0 0.00 0.00 0.00 72 1007.0
20260503110203 35 290 0.0 0.0 0.00 0.00 0.00 74 1007.0
20260503100202 33 307 0.0 0.0 0.00 0.00 0.00 80 1007.0
20260503090204 33 264 0.0 0.0 0.00 0.00 0.00 81 1007.0
20260503081204 33 264 0.0 0.0 0.00 0.00 0.00 80 1007.0
20260503080704 33 264 0.0 0.0 0.00 0.00 0.00 80 1007.0
20260503080202 33 264 0.0 0.0 0.00 0.00 0.00 80 1007.0
20260503072703 34 264 0.0 0.0 0.00 0.00 0.00 80 1008.0
20260503072205 34 264 0.0 0.0 0.00 0.00 0.00 80 1008.0
20260503071702 34 264 0.0 0.0 0.00 0.00 0.00 80 1008.0
20260503071202 34 264 0.0 0.0 0.00 0.00 0.00 81 1008.0
20260503070703 34 264 0.0 0.0 0.00 0.00 0.00 81 1008.0
20260503070208 34 264 0.0 0.0 0.00 0.00 0.00 81 1008.0
20260503060202 34 264 0.0 0.0 0.00 0.00 0.00 81 1008.0
20260503054702 34 264 0.0 0.0 0.00 0.00 0.00 80 1008.0
20260503054202 34 264 0.0 0.0 0.00 0.00 0.00 79 1008.0
20260503053702 34 264 0.0 0.0 0.00 0.00 0.00 79 1008.0
20260503053202 35 264 0.0 0.0 0.00 0.00 0.00 78 1008.0
20260503052704 35 264 0.0 0.0 0.00 0.00 0.00 78 1008.0
20260503052202 35 264 0.0 0.0 0.00 0.00 0.00 78 1008.0
20260503051703 35 264 0.0 0.0 0.00 0.00 0.00 77 1008.0
20260503051203 35 264 0.0 0.0 0.00 0.00 0.00 77 1008.0
20260503050703 35 264 0.0 0.0 0.00 0.00 0.00 76 1008.0
20260503050202 35 264 0.0 0.0 0.00 0.00 0.00 76 1008.0
20260503045702 36 264 0.0 0.0 0.00 0.00 0.00 75 1008.0
20260503045202 36 264 0.0 0.0 0.00 0.00 0.00 74 1008.0
20260503044703 36 264 0.0 0.0 0.00 0.00 0.00 74 1008.0
20260503044202 36 264 0.0 0.0 0.00 0.00 0.00 74 1008.0
20260503043703 36 264 0.0 0.0 0.00 0.00 0.00 74 1008.0
20260503043202 36 264 0.0 0.0 0.00 0.00 0.00 74 1008.0
20260503042702 36 264 0.0 0.0 0.00 0.00 0.00 73 1008.0
20260503042203 36 264 0.0 0.0 0.00 0.00 0.00 74 1008.0
20260503041703 36 264 0.0 0.0 0.00 0.00 0.00 73 1008.0
20260503041202 36 264 0.0 0.0 0.00 0.00 0.00 73 1008.0
20260503040702 36 264 0.0 0.0 0.00 0.00 0.00 74 1008.0
20260503040202 36 264 0.0 0.0 0.00 0.00 0.00 74 1008.0
20260503035702 36 264 0.0 0.0 0.00 0.00 0.00 74 1008.0
20260503035203 36 264 0.0 0.0 0.00 0.00 0.00 73 1008.0
20260503034703 36 264 0.0 0.0 0.00 0.00 0.00 73 1008.0
20260503034202 37 264 0.0 0.0 0.00 0.00 0.00 72 1009.0
20260503033703 37 264 0.0 0.0 0.00 0.00 0.00 71 1009.0
20260503033205 37 264 0.0 0.0 0.00 0.00 0.00 71 1009.0
20260503032704 37 264 0.0 0.0 0.00 0.00 0.00 70 1008.0
20260503032204 37 264 0.0 0.0 0.00 0.00 0.00 70 1008.0
20260503031702 37 264 0.0 0.0 0.00 0.00 0.00 69 1008.0
20260503031202 37 258 0.0 0.0 0.00 0.00 0.00 70 1009.0
20260503030702 37 258 0.0 0.0 0.00 0.00 0.00 69 1009.0
20260503030202 37 258 0.0 0.0 0.00 0.00 0.00 68 1009.0
20260503025702 38 258 0.0 0.0 0.00 0.00 0.00 68 1009.0
20260503025202 38 258 0.0 0.0 0.00 0.00 0.00 68 1009.0
20260503024702 38 258 0.0 0.0 0.00 0.00 0.00 67 1009.0
20260503024203 38 258 0.0 0.0 0.00 0.00 0.00 67 1009.0
20260503023702 38 258 0.0 0.0 0.00 0.00 0.00 66 1009.0
20260503023203 38 258 0.0 0.0 0.00 0.00 0.00 66 1009.0
20260503022703 39 258 0.0 0.0 0.00 0.00 0.00 65 1009.0
20260503022202 39 258 0.0 0.0 0.00 0.00 0.00 64 1009.0
20260503021702 39 258 0.0 0.0 0.00 0.00 0.00 63 1009.0
20260503021204 39 258 0.0 0.0 0.00 0.00 0.00 62 1009.0
20260503020702 39 258 0.0 0.0 0.00 0.00 0.00 63 1009.0
20260503020204 40 258 0.0 0.0 0.00 0.00 0.00 62 1009.0
20260503015704 40 258 0.0 0.0 0.00 0.00 0.00 61 1009.0
20260503015203 40 258 0.0 0.0 0.00 0.00 0.00 59 1009.0
20260503014702 40 258 0.0 0.0 0.00 0.00 0.00 59 1009.0
20260503014203 40 258 0.0 0.0 0.00 0.00 0.00 59 1009.0
20260503013702 41 258 0.0 0.0 0.00 0.00 0.00 58 1009.0
20260503013202 41 258 0.0 0.0 0.00 0.00 0.00 57 1009.0
20260503012703 42 258 0.0 0.0 0.00 0.00 0.00 56 1009.0
20260503012202 42 258 0.0 0.0 0.00 0.00 0.00 55 1009.0
20260503011702 42 258 0.0 0.0 0.00 0.00 0.00 54 1009.0
20260503011202 42 258 0.0 0.0 0.00 0.00 0.00 53 1008.0
20260503010703 43 258 0.0 0.0 0.00 0.00 0.00 53 1008.0
20260503010204 43 258 0.0 0.0 0.00 0.00 0.00 51 1008.0
20260503005704 44 258 0.0 0.0 0.00 0.00 0.00 51 1008.0
20260503005202 44 258 0.0 0.0 0.00 0.00 0.00 50 1008.0
20260503004703 44 258 0.0 0.0 0.00 0.00 0.00 50 1008.0
20260503004203 44 258 0.0 0.0 0.00 0.00 0.00 49 1008.0
20260503003702 45 258 0.0 0.0 0.00 0.00 0.00 48 1008.0
20260503003202 45 258 0.0 0.0 0.00 0.00 0.00 48 1008.0
20260503002702 45 258 0.0 0.0 0.00 0.00 0.00 47 1008.0
20260503002202 46 258 0.0 0.0 0.00 0.00 0.00 47 1008.0
20260503001702 46 258 0.0 0.0 0.00 0.00 0.00 44 1008.0
20260503001202 47 258 0.0 0.0 0.00 0.00 0.00 46 1008.0
20260503000703 47 258 0.0 0.0 0.00 0.00 0.00 44 1008.0
20260503000203 47 258 0.0 0.0 0.00 0.00 0.00 44 1008.0
20260502235702 47 264 0.0 0.0 0.00 0.00 0.00 43 1008.0
20260502235202 48 264 2.0 2.0 0.00 0.00 0.00 44 1008.0
20260502234228 48 24 0.0 0.0 0.00 0.00 0.00 45 1008.0
20260502233702 48 6 0.0 0.0 0.00 0.00 0.00 43 1008.0
20260502233203 48 224 0.0 0.0 0.00 0.00 0.00 43 1008.0
20260502232702 48 270 0.0 0.0 0.00 0.00 0.00 43 1008.0
20260502232203 48 270 2.0 2.0 0.00 0.00 0.00 42 1008.0
20260502231703 48 282 1.0 1.0 0.00 0.00 0.00 42 1008.0
20260502231203 48 270 2.0 2.0 0.00 0.00 0.00 42 1008.0
20260502230202 48 270 0.0 0.0 0.00 0.00 0.00 43 1008.0
20260502225702 48 270 0.0 0.0 0.00 0.00 0.00 43 1008.0
20260502225203 48 324 3.0 4.0 0.00 0.00 0.00 42 1008.0
20260502224703 48 342 0.0 0.0 0.00 0.00 0.00 41 1008.0
20260502224204 48 324 0.0 0.0 0.00 0.00 0.00 42 1008.0
20260502223703 48 354 1.0 1.0 0.00 0.00 0.00 43 1008.0
20260502223202 48 324 2.0 2.0 0.00 0.00 0.00 42 1008.0
20260502222702 49 228 1.0 1.0 0.00 0.00 0.00 43 1008.0
20260502222202 49 276 0.0 0.0 0.00 0.00 0.00 42 1008.0
20260502221702 49 312 2.0 2.0 0.00 0.00 0.00 44 1008.0
20260502221202 48 83 2.0 2.0 0.00 0.00 0.00 42 1009.0
20260502220703 48 306 0.0 0.0 0.00 0.00 0.00 42 1009.0
20260502220203 48 243 4.0 4.0 0.00 0.00 0.00 42 1009.0
20260502215702 48 0 2.0 2.0 0.00 0.00 0.00 41 1009.0
20260502215202 49 258 2.0 2.0 0.00 0.00 0.00 42 1009.0
20260502214702 49 318 2.0 2.0 0.00 0.00 0.00 42 1009.0
20260502214202 49 240 2.0 2.0 0.00 0.00 0.00 44 1009.0
20260502213702 48 240 0.0 0.0 0.00 0.00 0.00 42 1009.0
20260502213203 48 246 3.0 3.0 0.00 0.00 0.00 42 1009.0
20260502212702 49 264 0.0 0.0 0.00 0.00 0.00 42 1008.0
20260502212202 49 330 2.0 2.0 0.00 0.00 0.00 42 1008.0
20260502211702 49 238 0.0 0.0 0.00 0.00 0.00 41 1008.0
20260502211202 49 256 4.0 4.0 0.00 0.00 0.00 41 1009.0
20260502210702 48 324 0.0 0.0 0.00 0.00 0.00 43 1009.0
20260502210203 48 264 2.0 2.0 0.00 0.00 0.00 42 1009.0
20260502205702 48 228 3.0 4.0 0.00 0.00 0.00 41 1009.0
20260502205203 49 336 2.0 2.0 0.00 0.00 0.00 40 1009.0
20260502204702 49 288 0.0 0.0 0.00 0.00 0.00 43 1009.0
20260502204202 48 329 2.0 2.0 0.00 0.00 0.00 44 1009.0
20260502203702 48 353 3.0 4.0 0.00 0.00 0.00 40 1009.0
20260502203203 48 348 5.0 5.0 0.00 0.00 0.00 41 1009.0
20260502202703 47 6 1.0 1.0 0.00 0.00 0.00 42 1009.0
20260502202202 48 264 2.0 2.0 0.00 0.00 0.00 41 1009.0
20260502201703 48 228 3.0 3.0 0.00 0.00 0.00 43 1009.0
20260502201202 48 354 1.0 1.0 0.00 0.00 0.00 43 1009.0
20260502200702 48 264 2.0 2.0 0.00 0.00 0.00 41 1009.0
20260502200202 48 270 2.0 2.0 0.00 0.00 0.00 41 1009.0
20260502195703 48 234 0.0 0.0 0.00 0.00 0.00 41 1009.0
20260502195202 48 264 0.0 0.0 0.00 0.00 0.00 42 1009.0
20260502194703 48 252 2.0 2.0 0.00 0.00 0.00 42 1009.0
20260502194202 48 324 2.0 2.0 0.00 0.00 0.00 40 1010.0
20260502193703 48 306 2.0 2.0 0.00 0.00 0.00 40 1010.0
20260502193202 48 0 2.0 2.0 0.00 0.00 0.00 40 1010.0
20260502192702 48 229 2.0 2.0 0.00 0.00 0.00 41 1010.0
20260502192202 47 238 1.0 1.0 0.00 0.00 0.00 41 1010.0
20260502191702 47 312 2.0 2.0 0.00 0.00 0.00 43 1010.0
20260502191202 48 244 3.0 3.0 0.00 0.00 0.00 41 1010.0
20260502190704 48 324 2.0 2.0 0.00 0.00 0.00 40 1010.0
20260502190202 48 214 3.0 3.0 0.00 0.00 0.00 42 1010.0
20260502185702 47 258 1.0 1.0 0.00 0.00 0.00 41 1010.0
20260502185202 47 288 2.0 2.0 0.00 0.00 0.00 41 1010.0